RH
11 7 7 11 12 14 25 32 36 43 50 53 42 44 42 37 38 30 23 23 22 21 22 21 21 20 20 19 23 28 38 46 46 42 37 28 24 23 27 33 34 33 18 12
14 12 9 6 8 10 11 14 20 36 48 50 48 50 56 57 56 50 40 38 41 46 53 52 54 50 46 47 45 40 27 13 10 9 9 8 8 7 6 8 12 11 7 6
14 15 13 11 8 7 7 9 10 12 17 31 37 38 42 46 49 50 50 43 40 39 33 27 22 17 13 11 10 10 9 9 8 7 6 5 5 5 4 5 5 5 6 8
13 15 16 14 13 11 8 7 6 7 8 9 12 16 21 23 23 22 20 18 16 13 12 12 12 12 11 10 10 9 6 5 4 5 5 5 5 6 7 8 8 9 10 10
8 12 14 16 15 14 14 12 10 11 9 8 6 7 7 9 10 11 13 14 16 15 14 13 10 7 6 5 5 7 8 9 10 10 10 10 9 9 10 11 11 12 13 14
46 9 11 13 16 17 17 16 16 15 17 16 16 16 15 14 13 12 10 10 10 9 8 8 10 12 13 13 14 14 14 14 13 12 12 12 12 12 13 14 17 18 17 20
66 54 10 9 10 14 18 19 19 18 18 19 19 19 18 18 18 19 18 19 19 19 18 17 17 17 17 16 16 16 16 16 16 16 16 16 19 21 22 24 22 25 27 28
56 65 60 15 7 8 11 16 20 20 22 22 23 24 24 24 23 21 22 21 21 21 21 21 21 21 22 21 21 21 21 23 22 24 25 21 14 10 10 11 12 15 15 13
46 53 65 64 39 7 6 8 11 17 19 20 23 24 24 24 25 25 25 25 25 25 25 25 27 31 31 31 31 32 30 30 27 23 16 11 10 10 11 11 12 12 12 11
45 48 51 64 65 56 22 6 6 7 9 14 19 21 23 24 24 26 25 24 23 23 25 24 26 28 29 31 32 29 27 25 22 20 16 14 11 9 10 11 12 12 11 11
50 45 46 51 69 67 61 56 33 14 6 6 6 9 15 18 24 24 25 25 25 27 26 26 26 27 27 26 28 24 22 20 17 17 16 15 13 12 12 13 14 13 11 10
53 53 45 45 51 66 71 66 66 64 55 36 16 8 6 6 7 9 14 17 19 19 22 23 22 23 22 20 18 17 16 16 15 15 14 14 13 13 12 10 10 10 9 8
51 53 59 47 46 53 58 69 70 72 68 66 67 64 56 39 28 11 7 7 6 7 7 9 8 7 7 9 10 9 8 9 8 8 11 8 7 7 8 8 8 9 9 9
64 57 54 62 51 48 50 50 60 70 74 72 70 71 73 75 71 60 53 40 34 27 22 16 17 14 10 8 8 9 11 7 5 5 6 6 6 6 7 7 6 7 8 10
70 73 60 58 55 49 51 50 49 51 58 67 70 67 65 66 71 70 64 62 60 55 56 55 51 54 45 36 24 21 12 8 8 8 9 9 8 8 8 7 6 6 6 7
75 85 68 64 57 55 50 54 53 50 52 50 58 60 60 57 57 61 60 57 54 51 46 44 46 48 44 41 52 58 45 43 34 26 18 14 11 10 10 11 9 7 6 7
74 74 85 84 69 65 58 55 53 54 54 53 53 53 54 57 61 61 54 52 52 48 46 42 40 40 38 36 38 36 34 34 37 41 40 33 23 16 15 14 14 13 11 8
64 66 70 80 84 78 70 68 70 63 57 55 57 58 59 56 49 48 50 49 46 42 40 38 38 37 35 34 34 32 31 29 29 29 30 31 39 43 37 28 19 16 15 13
66 72 68 62 61 78 87 81 77 78 74 65 59 55 51 54 61 56 58 58 52 49 46 42 38 38 38 34 32 32 30 28 27 30 29 29 30 31 42 47 35 20 18 16
98 98 94 93 85 70 80 84 81 76 68 61 58 59 58 54 51 46 42 38 38 38 35 31 28 31 32 35 34 32 31 29 27 26 26 29 30 30 30 47 58 49 28 17
92 92 90 78 66 63 61 52 48 50 49 44 38 33 35 37 34 35 42 45 41 35 34 33 30 32 32 29 28 25 27 30 29 31 31 30 30 32 34 53 63 63 44 25
96 84 70 69 68 58 53 46 44 43 40 36 28 18 16 16 15 16 19 21 22 22 23 23 23 25 24 27 26 23 24 29 34 38 42 43 46 53 62 79 83 79 57 28
90 76 54 54 53 50 42 37 41 39 38 36 34 32 30 25 20 15 12 10 10 11 12 14 19 23 24 23 25 30 36 44 57 62 62 66 73 82 88 85 75 58 46 39
84 78 68 55 45 39 42 46 45 35 28 26 25 25 24 20 17 14 13 12 11 9 9 18 24 25 30 26 39 70 91 92 92 88 90 87 93 100 100 100 100 92 75 96
81 66 58 47 43 42 37 33 28 24 21 20 19 17 15 13 11 9 9 8 8 8 10 15 16 28 28 42 61 82 69 49 51 85 100 100 99 95 95 90 97 100 100 100
73 63 57 53 39 25 16 14 12 10 8 7 6 6 6 6 6 5 5 5 5 6 7 8 8 10 11 13 15 16 23 35 79 100 100 100 98 88 86 97 100 100 100 100
46 42 40 34 20 10 8 7 6 6 6 5 5 4 4 4 4 4 3 3 4 4 4 5 5 6 7 9 8 9 12 31 100 100 98 100 100 100 98 96 100 96 94 100
Wind_Speed
35 35 32 35 37 41 41 38 39 39 39 37 34 36 37 37 36 33 30 30 29 28 26 25 23 22 20 19 18 16 13 11 11 11 10 8 5 3 3 4 6 6 6 9
29 31 33 30 30 32 35 37 39 39 38 35 35 36 35 34 34 33 31 31 29 27 26 24 23 21 20 19 19 19 18 15 11 7 3 1 2 4 6 8 9 9 9 9
25 25 27 29 27 27 28 29 30 33 34 34 34 35 35 35 34 33 31 31 30 29 29 28 27 26 23 20 17 14 10 7 4 2 2 2 2 2 2 2 2 2 4 6
17 22 21 22 24 25 25 27 28 27 26 27 26 27 28 27 27 27 26 25 25 24 22 21 19 17 15 13 10 8 7 7 9 10 11 10 10 9 9 8 6 6 6 7
13 14 18 18 17 19 20 21 22 25 26 27 26 23 22 21 19 18 17 16 15 14 13 12 13 13 14 13 14 14 12 12 11 10 10 9 8 8 7 7 7 8 9 12
14 12 11 15 16 14 14 16 17 18 19 21 22 22 21 22 22 21 20 20 19 18 18 17 16 15 15 14 14 13 12 11 10 9 8 7 6 7 8 9 11 12 14 16
13 13 12 10 12 15 13 12 13 14 14 14 15 17 18 18 18 18 18 17 17 16 16 15 15 15 14 13 12 11 10 8 8 8 6 7 7 8 9 11 13 14 16 18
15 12 12 11 10 9 12 13 11 10 10 10 10 11 11 12 13 14 14 14 14 13 13 12 11 10 9 9 8 7 5 5 5 4 4 5 7 11 13 15 18 17 20 20
15 15 11 10 11 11 10 9 11 12 11 10 9 7 7 7 8 8 9 8 8 8 8 7 7 6 5 5 5 5 5 6 7 5 7 10 11 13 16 18 16 20 20 20
18 16 16 11 10 11 10 11 11 12 13 12 12 12 11 9 7 8 6 4 4 4 4 4 5 5 4 4 6 7 7 8 10 11 11 11 19 18 19 20 20 21 22 22
21 21 18 19 15 12 12 11 9 10 13 14 15 15 15 15 14 12 12 11 12 10 9 8 8 8 10 11 12 14 15 15 15 17 19 19 20 20 22 24 27 27 27 27
27 25 24 21 21 19 17 16 15 13 11 9 12 15 18 17 18 18 18 17 17 17 18 17 16 17 17 17 15 21 20 23 24 27 24 29 26 25 27 27 28 29 30 31
32 31 28 29 25 24 24 23 20 19 17 14 12 11 12 12 14 18 21 21 21 22 22 22 24 26 26 25 25 25 26 30 34 37 27 31 32 29 31 32 34 35 34 34
32 35 34 33 31 28 25 26 25 23 20 18 18 17 17 16 16 16 17 17 17 18 16 13 15 15 17 16 17 18 23 30 33 33 33 34 33 29 31 33 34 34 36 36
38 38 35 34 33 31 31 28 26 25 23 19 19 20 22 21 20 18 19 18 19 20 19 19 18 19 20 16 11 14 24 26 27 23 27 24 25 28 31 33 35 37 37 37
36 37 35 33 33 30 26 28 30 27 26 25 22 19 22 24 25 23 21 21 21 21 23 22 21 24 25 20 18 28 30 27 29 29 31 31 30 30 31 32 33 34 35 35
36 35 35 33 32 31 32 30 27 26 26 26 26 26 27 29 29 29 30 31 32 34 33 30 32 34 34 29 34 33 34 35 34 34 36 33 35 35 36 35 34 35 35 35
36 35 33 35 33 34 35 36 36 35 35 33 32 28 28 33 36 38 38 39 41 42 43 42 40 39 40 37 45 42 44 43 41 39 39 38 38 40 41 39 39 38 35 35
41 41 38 36 34 34 35 37 38 40 41 43 40 38 37 35 38 39 42 43 46 47 47 47 49 45 44 46 47 48 49 48 48 45 47 45 42 41 42 42 42 40 38 38
45 44 44 41 41 40 40 43 45 46 46 46 47 50 50 49 48 47 47 46 48 49 51 54 55 55 53 52 52 54 56 54 54 53 52 51 51 50 48 47 45 43 43 42
49 49 52 52 49 48 49 49 49 51 52 53 56 56 55 56 57 56 57 58 59 58 58 60 61 65 65 64 64 65 63 62 60 58 57 55 53 53 50 48 47 45 44 45
58 56 54 55 53 52 52 54 56 57 56 57 56 57 56 57 58 60 61 62 63 65 65 66 67 68 70 71 71 72 71 70 65 59 53 51 49 48 48 47 46 46 46 45
64 61 58 59 60 58 59 59 59 61 61 61 60 63 65 64 63 63 63 62 62 63 63 64 64 64 66 67 68 67 65 61 54 49 47 46 44 45 45 44 42 43 45 46
67 67 65 64 64 66 68 68 65 63 62 63 63 63 64 65 64 64 66 66 64 63 63 58 59 60 61 62 61 55 48 47 46 47 44 43 42 38 40 43 46 49 49 51
72 72 71 68 69 67 64 63 64 65 65 65 65 65 64 64 65 65 66 67 66 64 59 55 56 57 60 60 59 55 58 61 59 53 48 47 46 46 47 50 49 50 51 50
69 73 72 67 62 61 61 58 60 62 63 63 63 63 63 64 66 66 66 69 66 54 50 51 55 57 60 64 63 56 52 49 46 47 48 50 51 52 50 48 49 47 47 47
66 63 63 64 62 59 59 60 58 57 57 58 60 62 61 65 68 65 66 62 54 53 52 52 56 60 61 61 60 55 52 48 48 50 53 52 47 44 43 45 44 43 45 41
Wind_Direction
29 32 40 52 53 53 57 56 60 63 62 63 67 70 72 75 76 80 84 87 87 88 92 96 98 100 105 108 111 114 115 114 116 118 123 117 131 151 190 219 242 254 274 299
24 32 35 44 53 55 55 57 58 61 67 69 70 72 72 74 76 80 83 85 86 86 86 87 91 93 97 100 103 105 106 106 106 105 112 189 271 265 257 258 265 285 304 309
17 23 34 37 42 53 58 60 56 61 65 69 70 72 74 77 79 82 84 85 87 90 93 94 94 94 93 93 93 91 90 84 57 22 331 324 344 327 330 318 339 360 23 360
16 13 21 34 37 41 51 61 63 60 56 61 67 71 74 74 77 80 80 80 85 89 89 88 88 88 87 85 78 65 63 66 79 81 85 86 80 69 58 45 32 11 351 337
350 6 8 15 34 36 39 51 60 66 69 66 65 65 67 66 65 66 70 74 75 75 75 78 80 83 83 84 87 85 82 85 81 79 67 63 57 46 35 12 355 335 327 329
348 335 355 1 3 25 33 36 44 54 60 64 70 70 68 72 73 71 72 71 73 75 78 83 83 80 80 79 78 73 69 66 62 57 46 34 23 0 356 346 340 337 331 326
329 345 323 335 348 352 9 25 32 37 43 53 56 58 63 65 66 71 72 70 68 68 67 69 68 67 65 66 64 59 56 49 45 40 25 11 6 353 342 333 335 326 324 321
306 317 337 317 308 324 340 348 360 8 18 31 42 54 59 58 58 59 61 67 67 68 70 71 68 64 61 56 51 47 38 28 22 13 9 0 1 352 346 341 335 332 321 315
287 293 303 317 326 296 298 316 325 334 341 343 351 5 25 39 44 54 55 54 55 56 58 65 71 59 47 36 27 16 2 357 346 343 335 340 338 335 337 339 340 335 329 319
279 279 285 284 299 311 299 281 288 300 312 321 324 327 332 335 343 342 339 352 2 1 3 359 350 339 334 320 320 316 313 315 313 309 309 318 314 319 319 320 322 325 325 319
278 275 272 275 277 282 291 298 290 280 283 290 300 306 311 313 313 318 310 311 310 303 297 298 297 299 303 306 309 301 303 300 298 299 305 299 294 302 301 305 312 313 314 312
283 272 268 266 265 269 274 279 288 293 289 290 285 289 284 285 291 297 298 298 298 298 296 294 293 295 290 290 291 292 295 298 299 297 295 288 285 294 296 294 296 300 301 301
285 275 268 266 259 256 263 270 271 276 280 282 285 284 290 297 298 288 283 286 288 288 291 291 294 297 295 295 294 294 292 291 285 277 279 286 295 295 292 296 298 298 295 294
283 279 269 266 262 259 256 258 267 271 272 273 276 277 283 285 283 284 288 288 293 296 299 305 305 309 311 314 315 307 285 277 285 303 301 303 305 302 297 290 287 286 288 290
274 276 264 265 266 264 262 262 261 264 270 270 271 277 283 286 285 281 282 287 295 297 296 301 302 301 304 316 323 300 282 303 311 318 305 311 305 300 300 302 303 300 291 288
262 262 256 257 262 266 270 264 264 265 267 267 270 276 279 284 286 287 286 288 287 288 298 305 311 309 311 328 314 282 298 304 297 295 293 298 297 298 301 306 307 303 298 291
253 253 252 250 252 259 264 266 267 268 270 270 270 271 270 273 272 276 281 286 288 291 292 298 303 306 308 314 300 305 307 309 309 307 304 296 294 294 296 298 300 300 301 298
246 247 249 251 250 253 258 264 267 271 272 274 277 277 272 269 273 273 274 277 281 284 288 293 291 293 296 301 291 299 298 299 299 299 298 297 296 292 292 293 293 293 291 291
247 249 249 250 256 259 263 269 273 273 275 277 281 285 283 283 277 274 275 276 281 284 290 290 291 291 290 289 292 292 294 297 298 296 295 294 291 291 291 289 286 288 287 286
258 261 262 260 258 261 268 273 275 277 279 282 285 284 283 283 283 281 279 277 280 283 286 289 292 296 293 292 291 293 294 295 295 295 294 292 290 289 290 287 283 282 281 279
257 264 268 268 269 268 270 274 278 279 281 283 284 283 281 280 281 280 278 278 281 282 283 285 287 289 291 292 293 292 291 290 290 290 291 290 287 285 283 281 280 280 279 279
258 262 264 265 269 271 273 272 275 277 280 283 285 285 284 284 283 282 281 281 281 282 283 283 283 284 283 284 285 286 287 287 289 289 286 285 282 278 275 277 279 279 278 278
260 262 265 265 267 271 273 276 282 283 284 283 283 282 283 284 285 283 282 281 282 283 284 284 285 285 285 285 286 286 286 286 287 286 285 280 275 271 272 274 275 277 278 280
260 261 265 266 269 273 276 281 281 279 279 278 277 278 279 281 279 279 280 280 281 282 283 285 286 287 287 287 284 279 280 283 287 289 282 277 269 268 276 278 277 276 278 281
262 265 267 271 275 276 276 273 271 269 270 271 273 273 273 273 274 276 278 280 281 282 284 290 289 284 280 279 278 274 278 282 282 279 270 264 267 272 278 278 276 275 277 280
263 267 271 272 270 268 264 264 265 266 269 270 270 270 271 272 272 274 277 278 281 288 286 280 277 276 276 274 275 277 281 283 281 277 278 280 281 280 278 278 279 279 281 285
264 266 267 264 262 261 261 262 263 265 266 268 269 271 272 272 272 277 280 286 288 283 279 277 277 273 270 273 282 285 285 283 270 272 273 273 274 274 274 274 283 284 284 286